This is the latest recevied weather packets stored in our database for station/object DC4THF-13. If no packets are shown the sender has not sent any weather packets the latest 1 day(s).
| Time | Temp. | Humidity | Pressure | Rain* | Wind** | Luminosity | Snow |
|---|---|---|---|---|---|---|---|
| 1777986135 | 22.78° C | 51% | 1002.2 hPa | 0 mm | 0.89 m/s, 283° | - | - |
| 1777985592 | 21.11° C | 54% | 1002.4 hPa | 0 mm | 0.89 m/s, 329° | - | - |
| 1777984989 | 22.22° C | 54% | 1002.5 hPa | 0 mm | 0.45 m/s, 184° | - | - |
| 1777984385 | 21.67° C | 55% | 1002.5 hPa | 0 mm | 0.89 m/s, 302° | - | - |
| 1777983783 | 21.67° C | 57% | 1002.8 hPa | 0 mm | 0.45 m/s, 208° | - | - |
| 1777983179 | 21.11° C | 60% | 1002.9 hPa | 0 mm | 0.45 m/s, 97° | - | - |
| 1777982576 | 20.56° C | 60% | 1002.9 hPa | 0 mm | 0.45 m/s, 325° | - | - |
| 1777981973 | 20.56° C | 61% | 1003 hPa | 0 mm | 0.45 m/s, 303° | - | - |
| 1777981369 | 20.56° C | 61% | 1003.1 hPa | 0 mm | 0.45 m/s, 347° | - | - |
| 1777980163 | 20° C | 64% | 1003.3 hPa | 0 mm | 0.45 m/s, 333° | - | - |
| 1777979560 | 19.44° C | 64% | 1003.4 hPa | 0 mm | 0 m/s | - | - |
| 1777978957 | 19.44° C | 64% | 1003.4 hPa | 0 mm | 0.45 m/s, 265° | - | - |
| 1777978353 | 19.44° C | 64% | 1003.3 hPa | 0 mm | 1.34 m/s, 282° | - | - |
| 1777977750 | 19.44° C | 67% | 1003.5 hPa | 0 mm | 0.45 m/s, 284° | - | - |
| 1777977147 | 19.44° C | 66% | 1003.6 hPa | 0 mm | 0.45 m/s, 230° | - | - |
| 1777976544 | 19.44° C | 67% | 1003.6 hPa | 0 mm | 0.45 m/s, 150° | - | - |
| 1777975941 | 18.89° C | 67% | 1003.6 hPa | 0 mm | 0.45 m/s, 144° | - | - |
| 1777975338 | 18.33° C | 66% | 1003.6 hPa | 0 mm | 0 m/s | - | - |
| 1777974795 | 18.33° C | 66% | 1003.7 hPa | 0 mm | 0.45 m/s, 236° | - | - |
| 1777974192 | 18.89° C | 67% | 1003.6 hPa | 0 mm | 0.45 m/s, 333° | - | - |
| 1777973588 | 18.33° C | 67% | 1003.7 hPa | 0 mm | 0 m/s | - | - |
| 1777972985 | 18.89° C | 66% | 1003.6 hPa | 0 mm | 0.45 m/s, 108° | - | - |
| 1777972381 | 18.89° C | 66% | 1003.7 hPa | 0 mm | 0.45 m/s, 0° | - | - |
| 1777971779 | 18.89° C | 67% | 1003.9 hPa | 0 mm | 0.45 m/s, 343° | - | - |
| 1777971175 | 18.89° C | 67% | 1003.9 hPa | 0 mm | 0.89 m/s, 340° | - | - |
* Rain latest hour (hover to see other rain measurements)
** Current wind speed in m/s (hover to see current wind gust speed)